Caatiba, Brazil
Current Conditions -  °F | °C
As of 1:00 PM on Thursday 29 Jan 2015 (Local Time) from SBQV Reporting Station
Scattered Clouds Scattered Clouds  
Wind Chill: 86°   Ceiling: Unl
Heat Index: 87°   Visibility: 6mi
Dew Point: 64°   Wind: 10mph
Humidity: 48%   Direction: 120°ESE
Pressure: 30.06"   Gusts: NA
Location:  14.99°S, 40.41°W
Report Text: SBQV 291600Z 12009KT 090V150 9999 SCT035 30/18 Q1018
Loading
Personal Weather Stations






























Interactive Weather Map New forecast layout! Learn more

10-Day Weather Forecast

Advertisements
Track Severe Weather on mobile